Hourly Data Report for August 17, 2017

PITT MEADOWS CS
BRITISH COLUMBIA

49°12'29.964" N
122°41'24.076" W
5.00 m
1106178
71775
WMM

Download Data

Hourly Data (August 2017)
Hourly Data Report for August 17, 2017
TIME
LST
Temp Definition
°C
Dew Point Definition
°C
Rel Hum Definition
%
Precip. Amount Definition
mm

Wind Dir Definition
10's deg

Wind Spd Definition
km/h
Visibility Definition
km
Stn Press Definition
kPa
Hmdx Definition


Wind Chill Definition


Weather Definition


00:00 16.1 13.5 84 0.0 5 5   101.85     LegendNANA
01:00 15.7 13.6 87 0.0 12 2   101.86     LegendNANA
02:00 14.3 12.6 90 0.0 12 3   101.88     LegendNANA
03:00 14.6 13.0 90 0.0 11 5   101.91     LegendNANA
04:00 14.1 12.4 90 0.0 0 1   101.94     LegendNANA
05:00 13.6 12.1 91 0.0   0   101.97     LegendNANA
06:00 14.4 12.6 89 0.0 8 2   102.01     LegendNANA
07:00 17.5 12.9 75 0.0 12 3   102.09     LegendNANA
08:00 18.4 12.6 69 0.0 14 4   102.09     LegendNANA
09:00 19.7 12.5 63 0.0 16 4   102.10     LegendNANA
10:00 21.3 13.2 60 0.0 14 6   102.12     LegendNANA
11:00 22.5 14.1 59 0.0 22 5   102.11 26   LegendNANA
12:00 23.0 14.0 57 0.0 24 8   102.11 26   LegendNANA
13:00 23.7 14.0 55 0.0 20 8   102.09 27   LegendNANA
14:00 23.8 13.9 54 0.0 22 8   102.06 27   LegendNANA
15:00 24.7 13.5 50 0.0 20 8   102.03 28   LegendNANA
16:00 24.6 12.9 48 0.0 20 8   101.98 27   LegendNANA
17:00 24.3 12.2 47 0.0 19 6   101.93 27   LegendNANA
18:00 22.9 12.8 53 0.0 20 7   101.94 26   LegendNANA
19:00 21.1 12.4 58 0.0 24 7   101.93     LegendNANA
20:00 19.7 12.6 63 0.0 24 3   101.96     LegendNANA
21:00 17.8 12.9 73 0.0 12 3   101.98     LegendNANA
22:00 17.2 12.8 75 0.0 9 6   102.00     LegendNANA
23:00 16.6 12.3 76 0.0 11 6   101.99     LegendNANA

Notes on Data Quality.

Legend

  • E = Estimated
  • M = Missing
  • NA = Not Available*
  • [empty] = Indicates an unobserved value
Date modified: